CZ-4C R/B, 57655

Orbit data source: Space-Track

CZ-4C R/B, 57655 is space debris in SSO originally from a launch on Sun, 20 Aug 2023 UTC launched from the Jiuquan Satellite Launch Center, China (JSC). Debris objects in space refer to the collection of defunct objects orbiting the Earth. Examples of debris include non-operational satellites, rocket bodies, and fragments generated from explosions, collisions, or faulty payload assembly.

Loading next visibility...
Identifier
57655, 2023-123B
Orbit
SSO
Country
Flag of CNCN / PRC
Related business
Manufacturer
SAST
Mission
Spacecraft
Bus & Motor
CZ-4 STAGE 3, Unknown motor
Mass
~1,000 kg wet, ~1,000 kg dry
Launch date (UTC)
2023-08-20 (2 years ago)
Launch vehicle
Unknown
Launch site
Jiuquan Satellite Launch Center, China (JSC)
Object type
Payload
Rocket body
Debris
Shape & HBR
Cyl, 1.4 m
Radar Cross Section
7.676 m², Large (>1 m²)

Expand to show TLE details & history
Last TLE update: 4 hours ago

TLE from 4 hours ago
0 CZ-4C R/B
1 57655U 23123B   25300.87621740  .00013806  00000-0  41664-3 0  9996
2 57655  97.9502 267.2691 0066922 172.9938 187.2254 15.32171893121417
Epoch: 2025-10-27T21:01Z
TLE epoch observation values (Epoch: 2025-10-27T21:01:45.183Z)
Latitude
-0.00001°
Longitude
-84.64093°
Altitude
517.9 km
Speed
7.579 km/s
True Right ascension
17h 49m 04s
True Declination
0° 00' 00"
Sunlit
Object was in daylight at epoch
Visualization orbit readout
Latitude
Unknown
Longitude
Unknown
Altitude
Unknown
Speed
Unknown
Apparent Right ascension
Unknown
Apparent Declination
Unknown
Sunlit
N/A
Visualization observer readout
Local Sidereal Time
20:40:32
Azimuth
Unknown
Elevation
Unknown
Doppler factor
Unknown
Orbital elements
Apogee altitude
512.112 km
Perigee altitude
420.503 km
Semi-major axis
6,844.444 km
Eccentricity
0.00669
Inclination
97.9502°
RAAN
267.2691°
Arg. of periapsis
172.9938°
True anomaly
187.12974°
Mean anomaly
187.2254°
Eccentric anomaly
187.17749°
Mean motion
3.83297 °/min
Orbital period
93.92 mins
BSTAR
0.00041664
Loading maneuver chart data...
Computing Atmospheric mass density...
Loading historical data...
Loading historical data...
Loading historical data...
Loading historical data...
Loading historical data...
Loading historical data...
Loading historical data...
Other satellites on launch #123 in the year 2023 (2023-08-20 UTC)

Documentation

Showing up to 5 results
|